SUR4118 SAAR-SACO

Flight info

Callsign SUR4118
Flight time 1h 8m
Altitude 10000
Route ROS W5 CBA
Aircraft BE58/L-SDFGRY/C

Departure

Time 2026-04-23 12:58
Airport Rosario Islas Malvinas International Airport (SAAR)

Arrival

Time 2026-04-23 14:06
Airport Ingeniero Aeronáutico Ambrosio L.V. Taravella International Airport (SACO)
Time Latitude Longitude Altitude Speed Heading
2026-04-23 12:43 -32.91636 -60.78097 87 ft 0 kts 110°
2026-04-23 12:51 -32.91676 -60.78118 87 ft 0 kts 111°
2026-04-23 12:52 -32.91636 -60.78097 87 ft 0 kts 110°
2026-04-23 12:55 -32.91637 -60.78097 87 ft 0 kts 110°
2026-04-23 12:55 -32.91647 -60.78127 87 ft 13 kts 293°
2026-04-23 12:55 -32.91701 -60.78182 87 ft 10 kts 220°
2026-04-23 12:55 -32.91737 -60.78281 87 ft 16 kts 256°
2026-04-23 12:56 -32.91762 -60.78413 87 ft 15 kts 258°
2026-04-23 12:56 -32.91790 -60.78529 87 ft 13 kts 256°
2026-04-23 12:56 -32.91767 -60.78622 87 ft 11 kts 310°
2026-04-23 12:56 -32.91716 -60.78692 87 ft 7 kts 313°
2026-04-23 12:57 -32.91713 -60.78696 87 ft 0 kts 315°
2026-04-23 12:57 -32.91687 -60.78722 87 ft 14 kts 324°
2026-04-23 12:57 -32.91519 -60.78734 87 ft 50 kts 13°
2026-04-23 12:57 -32.90949 -60.78609 161 ft 101 kts 13°
2026-04-23 12:58 -32.90215 -60.78461 527 ft 112 kts 12°
2026-04-23 12:58 -32.89363 -60.78313 687 ft 137 kts 16°
2026-04-23 12:58 -32.88419 -60.78052 915 ft 140 kts 15°
2026-04-23 12:58 -32.87462 -60.77819 1148 ft 141 kts 14°
2026-04-23 12:59 -32.86500 -60.77594 1410 ft 140 kts 15°
2026-04-23 12:59 -32.85557 -60.77376 1666 ft 139 kts 14°
2026-04-23 12:59 -32.84591 -60.77461 1902 ft 146 kts 338°
2026-04-23 12:59 -32.83907 -60.78361 2133 ft 153 kts 295°
2026-04-23 13:00 -32.83575 -60.79565 2379 ft 153 kts 291°
2026-04-23 13:00 -32.83221 -60.80745 2629 ft 151 kts 294°
2026-04-23 13:00 -32.82838 -60.81911 2885 ft 150 kts 296°
2026-04-23 13:00 -32.82446 -60.83054 3131 ft 149 kts 296°
2026-04-23 13:01 -32.82052 -60.84188 3368 ft 149 kts 297°
2026-04-23 13:01 -32.81656 -60.85316 3603 ft 147 kts 296°
2026-04-23 13:01 -32.81264 -60.86431 3824 ft 146 kts 296°
2026-04-23 13:01 -32.80873 -60.87539 4033 ft 146 kts 296°
2026-04-23 13:02 -32.80471 -60.88679 4287 ft 153 kts 296°
2026-04-23 13:02 -32.80056 -60.89855 4567 ft 156 kts 296°
2026-04-23 13:02 -32.79637 -60.91042 4864 ft 157 kts 296°
2026-04-23 13:02 -32.79217 -60.92236 5160 ft 157 kts 296°
2026-04-23 13:03 -32.78795 -60.93428 5449 ft 157 kts 296°
2026-04-23 13:03 -32.78374 -60.94623 5735 ft 156 kts 295°
2026-04-23 13:03 -32.77954 -60.95812 6017 ft 156 kts 296°
2026-04-23 13:03 -32.77537 -60.96991 6298 ft 155 kts 296°
2026-04-23 13:04 -32.77123 -60.98163 6573 ft 154 kts 296°
2026-04-23 13:04 -32.76709 -60.99332 6825 ft 155 kts 295°
2026-04-23 13:04 -32.76281 -61.00530 7044 ft 157 kts 297°
2026-04-23 13:04 -32.75829 -61.01704 7265 ft 157 kts 297°
2026-04-23 13:05 -32.75375 -61.02879 7489 ft 157 kts 297°
2026-04-23 13:05 -32.74918 -61.04060 7713 ft 157 kts 297°
2026-04-23 13:05 -32.74460 -61.05244 7932 ft 158 kts 296°
2026-04-23 13:05 -32.74004 -61.06424 8150 ft 158 kts 296°
2026-04-23 13:06 -32.73087 -61.08795 8579 ft 159 kts 296°
2026-04-23 13:06 -32.72624 -61.09989 8795 ft 159 kts 295°
2026-04-23 13:06 -32.72163 -61.11180 9013 ft 159 kts 295°
2026-04-23 13:07 -32.71705 -61.12364 9228 ft 158 kts 295°
2026-04-23 13:07 -32.71242 -61.13559 9444 ft 158 kts 294°
2026-04-23 13:07 -32.70790 -61.14724 9655 ft 157 kts 294°
2026-04-23 13:07 -32.70331 -61.15909 9861 ft 156 kts 294°
2026-04-23 13:08 -32.69878 -61.17077 10071 ft 155 kts 294°
2026-04-23 13:08 -32.69427 -61.18241 10264 ft 155 kts 294°
2026-04-23 13:08 -32.68953 -61.19461 10231 ft 169 kts 294°
2026-04-23 13:08 -32.68449 -61.20758 10225 ft 176 kts 294°
2026-04-23 13:09 -32.67929 -61.22098 10224 ft 181 kts 295°
2026-04-23 13:09 -32.67399 -61.23460 10224 ft 183 kts 294°
2026-04-23 13:09 -32.66862 -61.24838 10220 ft 185 kts 294°
2026-04-23 13:09 -32.66320 -61.26234 10223 ft 187 kts 294°
2026-04-23 13:10 -32.65774 -61.27634 10222 ft 188 kts 294°
2026-04-23 13:10 -32.65225 -61.29041 10221 ft 188 kts 295°
2026-04-23 13:10 -32.64581 -61.30399 10223 ft 188 kts 300°
2026-04-23 13:10 -32.63907 -61.31741 10222 ft 188 kts 300°
2026-04-23 13:11 -32.63232 -61.33084 10222 ft 188 kts 300°
2026-04-23 13:11 -32.62564 -61.34418 10221 ft 188 kts 300°
2026-04-23 13:11 -32.61896 -61.35753 10220 ft 188 kts 300°
2026-04-23 13:11 -32.61229 -61.37085 10220 ft 188 kts 300°
2026-04-23 13:12 -32.60553 -61.38435 10222 ft 189 kts 301°
2026-04-23 13:12 -32.59883 -61.39771 10222 ft 189 kts 300°
2026-04-23 13:12 -32.59215 -61.41103 10222 ft 189 kts 300°
2026-04-23 13:12 -32.58543 -61.42444 10221 ft 189 kts 300°
2026-04-23 13:13 -32.57875 -61.43778 10222 ft 188 kts 300°
2026-04-23 13:13 -32.57198 -61.45128 10221 ft 189 kts 300°
2026-04-23 13:13 -32.56530 -61.46458 10222 ft 189 kts 300°
2026-04-23 13:13 -32.55861 -61.47790 10221 ft 189 kts 300°
2026-04-23 13:14 -32.55185 -61.49138 10221 ft 189 kts 300°
2026-04-23 13:14 -32.54514 -61.50474 10221 ft 189 kts 300°
2026-04-23 13:14 -32.53843 -61.51810 10222 ft 189 kts 300°
2026-04-23 13:14 -32.53173 -61.53143 10221 ft 188 kts 300°
2026-04-23 13:15 -32.52506 -61.54471 10221 ft 188 kts 300°
2026-04-23 13:15 -32.51828 -61.55818 10221 ft 188 kts 300°
2026-04-23 13:15 -32.51166 -61.57135 10220 ft 188 kts 301°
2026-04-23 13:15 -32.50492 -61.58476 10222 ft 188 kts 301°
2026-04-23 13:16 -32.49823 -61.59804 10222 ft 188 kts 301°
2026-04-23 13:16 -32.49143 -61.61153 10220 ft 189 kts 301°
2026-04-23 13:16 -32.48473 -61.62481 10218 ft 188 kts 300°
2026-04-23 13:16 -32.47802 -61.63812 10218 ft 189 kts 300°
2026-04-23 13:17 -32.47132 -61.65142 10219 ft 189 kts 301°
2026-04-23 13:17 -32.46458 -61.66477 10219 ft 189 kts 301°
2026-04-23 13:17 -32.45786 -61.67810 10220 ft 189 kts 301°
2026-04-23 13:17 -32.45104 -61.69161 10220 ft 189 kts 300°
2026-04-23 13:18 -32.44431 -61.70494 10219 ft 188 kts 301°
2026-04-23 13:18 -32.43767 -61.71810 10216 ft 189 kts 301°
2026-04-23 13:18 -32.43091 -61.73149 10213 ft 189 kts 301°
2026-04-23 13:18 -32.42413 -61.74491 10211 ft 189 kts 301°
2026-04-23 13:19 -32.41742 -61.75818 10209 ft 189 kts 302°
2026-04-23 13:19 -32.41058 -61.77169 10207 ft 189 kts 302°
2026-04-23 13:19 -32.40380 -61.78508 10208 ft 189 kts 301°
2026-04-23 13:19 -32.39710 -61.79832 10210 ft 189 kts 302°
2026-04-23 13:20 -32.39032 -61.81171 10211 ft 189 kts 302°
2026-04-23 13:20 -32.38352 -61.82512 10214 ft 189 kts 301°
2026-04-23 13:20 -32.37675 -61.83847 10214 ft 189 kts 301°
2026-04-23 13:20 -32.37001 -61.85176 10218 ft 189 kts 301°
2026-04-23 13:21 -32.36328 -61.86505 10220 ft 189 kts 301°
2026-04-23 13:21 -32.35653 -61.87836 10220 ft 189 kts 301°
2026-04-23 13:21 -32.34975 -61.89172 10221 ft 189 kts 301°
2026-04-23 13:21 -32.34296 -61.90511 10222 ft 189 kts 302°
2026-04-23 13:22 -32.33786 -61.91944 10226 ft 190 kts 291°
2026-04-23 13:22 -32.33110 -61.93269 10225 ft 189 kts 305°
2026-04-23 13:22 -32.32371 -61.94558 10223 ft 190 kts 304°
2026-04-23 13:22 -32.31652 -61.95870 10223 ft 190 kts 303°
2026-04-23 13:23 -32.30939 -61.97211 10222 ft 190 kts 302°
2026-04-23 13:23 -32.30244 -61.98541 10222 ft 190 kts 302°
2026-04-23 13:23 -32.29557 -61.99870 10220 ft 189 kts 301°
2026-04-23 13:23 -32.28874 -62.01201 10222 ft 189 kts 301°
2026-04-23 13:24 -32.28192 -62.02533 10222 ft 189 kts 301°
2026-04-23 13:24 -32.27512 -62.03865 10221 ft 189 kts 301°
2026-04-23 13:24 -32.26837 -62.05189 10219 ft 189 kts 301°
2026-04-23 13:24 -32.26160 -62.06517 10221 ft 189 kts 302°
2026-04-23 13:25 -32.25482 -62.07849 10223 ft 189 kts 302°
2026-04-23 13:25 -32.24802 -62.09182 10225 ft 189 kts 302°
2026-04-23 13:25 -32.24131 -62.10498 10226 ft 189 kts 302°
2026-04-23 13:25 -32.23449 -62.11835 10229 ft 189 kts 302°
2026-04-23 13:26 -32.22765 -62.13175 10227 ft 190 kts 302°
2026-04-23 13:26 -32.22081 -62.14514 10225 ft 190 kts 302°
2026-04-23 13:26 -32.21406 -62.15837 10225 ft 190 kts 302°
2026-04-23 13:26 -32.20717 -62.17185 10223 ft 190 kts 302°
2026-04-23 13:27 -32.20034 -62.18521 10225 ft 190 kts 302°
2026-04-23 13:27 -32.19353 -62.19852 10224 ft 190 kts 302°
2026-04-23 13:27 -32.18673 -62.21183 10223 ft 190 kts 302°
2026-04-23 13:27 -32.17990 -62.22519 10220 ft 189 kts 302°
2026-04-23 13:28 -32.17316 -62.23837 10221 ft 189 kts 302°
2026-04-23 13:28 -32.16636 -62.25166 10220 ft 188 kts 302°
2026-04-23 13:28 -32.15958 -62.26488 10221 ft 189 kts 302°
2026-04-23 13:28 -32.15271 -62.27831 10221 ft 189 kts 302°
2026-04-23 13:29 -32.14593 -62.29156 10221 ft 189 kts 302°
2026-04-23 13:29 -32.13911 -62.30485 10221 ft 190 kts 302°
2026-04-23 13:29 -32.13224 -62.31825 10222 ft 189 kts 302°
2026-04-23 13:29 -32.12545 -62.33148 10220 ft 189 kts 302°
2026-04-23 13:30 -32.11861 -62.34481 10220 ft 189 kts 303°
2026-04-23 13:30 -32.11177 -62.35813 10221 ft 189 kts 302°
2026-04-23 13:30 -32.10502 -62.37129 10221 ft 189 kts 302°
2026-04-23 13:30 -32.09814 -62.38467 10222 ft 189 kts 302°
2026-04-23 13:31 -32.09135 -62.39788 10219 ft 188 kts 302°
2026-04-23 13:31 -32.08459 -62.41104 10219 ft 188 kts 302°
2026-04-23 13:31 -32.07780 -62.42425 10219 ft 188 kts 302°
2026-04-23 13:31 -32.07103 -62.43740 10221 ft 188 kts 302°
2026-04-23 13:32 -32.06419 -62.45069 10223 ft 188 kts 303°
2026-04-23 13:32 -32.05742 -62.46386 10223 ft 188 kts 302°
2026-04-23 13:32 -32.05060 -62.47709 10224 ft 189 kts 303°
2026-04-23 13:32 -32.04388 -62.49015 10221 ft 189 kts 302°
2026-04-23 13:33 -32.03705 -62.50340 10222 ft 189 kts 302°
2026-04-23 13:33 -32.03022 -62.51666 10223 ft 189 kts 302°
2026-04-23 13:33 -32.02330 -62.53007 10222 ft 189 kts 302°
2026-04-23 13:33 -32.01644 -62.54336 10222 ft 189 kts 302°
2026-04-23 13:34 -32.00959 -62.55662 10223 ft 190 kts 302°
2026-04-23 13:34 -32.00272 -62.56994 10223 ft 190 kts 302°
2026-04-23 13:34 -31.99593 -62.58310 10221 ft 190 kts 302°
2026-04-23 13:34 -31.98906 -62.59640 10221 ft 189 kts 302°
2026-04-23 13:35 -31.98222 -62.60963 10222 ft 189 kts 303°
2026-04-23 13:35 -31.97540 -62.62283 10223 ft 189 kts 302°
2026-04-23 13:35 -31.96848 -62.63621 10223 ft 189 kts 303°
2026-04-23 13:35 -31.96164 -62.64944 10223 ft 189 kts 303°
2026-04-23 13:36 -31.95485 -62.66255 10223 ft 189 kts 304°
2026-04-23 13:36 -31.94792 -62.67594 10223 ft 189 kts 303°
2026-04-23 13:36 -31.94109 -62.68912 10221 ft 189 kts 303°
2026-04-23 13:36 -31.93425 -62.70233 10222 ft 189 kts 303°
2026-04-23 13:37 -31.92741 -62.71553 10222 ft 189 kts 303°
2026-04-23 13:37 -31.92059 -62.72870 10223 ft 189 kts 303°
2026-04-23 13:37 -31.91379 -62.74181 10222 ft 189 kts 303°
2026-04-23 13:37 -31.90695 -62.75500 10222 ft 189 kts 303°
2026-04-23 13:38 -31.90003 -62.76833 10220 ft 189 kts 303°
2026-04-23 13:38 -31.89320 -62.78148 10222 ft 189 kts 303°
2026-04-23 13:38 -31.88636 -62.79467 10223 ft 189 kts 304°
2026-04-23 13:38 -31.87955 -62.80777 10224 ft 188 kts 303°
2026-04-23 13:39 -31.87266 -62.82103 10223 ft 188 kts 303°
2026-04-23 13:39 -31.86583 -62.83417 10224 ft 189 kts 303°
2026-04-23 13:39 -31.85898 -62.84735 10224 ft 189 kts 303°
2026-04-23 13:39 -31.85209 -62.86059 10225 ft 189 kts 303°
2026-04-23 13:40 -31.84520 -62.87383 10225 ft 189 kts 304°
2026-04-23 13:40 -31.83833 -62.88701 10224 ft 190 kts 303°
2026-04-23 13:40 -31.83148 -62.90017 10225 ft 190 kts 303°
2026-04-23 13:40 -31.82456 -62.91346 10225 ft 190 kts 303°
2026-04-23 13:41 -31.81764 -62.92674 10224 ft 190 kts 303°
2026-04-23 13:41 -31.81079 -62.93989 10224 ft 189 kts 304°
2026-04-23 13:41 -31.80393 -62.95305 10225 ft 189 kts 304°
2026-04-23 13:41 -31.79696 -62.96640 10225 ft 189 kts 304°
2026-04-23 13:42 -31.79008 -62.97961 10225 ft 189 kts 304°
2026-04-23 13:42 -31.78321 -62.99275 10225 ft 189 kts 304°
2026-04-23 13:42 -31.77634 -63.00589 10223 ft 189 kts 304°
2026-04-23 13:42 -31.76948 -63.01904 10223 ft 189 kts 304°
2026-04-23 13:43 -31.76253 -63.03234 10221 ft 189 kts 304°
2026-04-23 13:43 -31.75573 -63.04536 10222 ft 189 kts 304°
2026-04-23 13:43 -31.74876 -63.05867 10222 ft 189 kts 304°
2026-04-23 13:43 -31.74189 -63.07181 10222 ft 189 kts 303°
2026-04-23 13:44 -31.73499 -63.08500 10224 ft 189 kts 303°
2026-04-23 13:44 -31.72809 -63.09817 10225 ft 189 kts 304°
2026-04-23 13:44 -31.72119 -63.11137 10225 ft 189 kts 304°
2026-04-23 13:44 -31.71426 -63.12460 10223 ft 189 kts 304°
2026-04-23 13:45 -31.70736 -63.13777 10223 ft 189 kts 304°
2026-04-23 13:45 -31.70047 -63.15090 10221 ft 189 kts 304°
2026-04-23 13:45 -31.69360 -63.16402 10221 ft 189 kts 304°
2026-04-23 13:45 -31.68669 -63.17719 10221 ft 189 kts 304°
2026-04-23 13:46 -31.67981 -63.19031 10220 ft 188 kts 304°
2026-04-23 13:46 -31.67292 -63.20342 10218 ft 188 kts 304°
2026-04-23 13:46 -31.66640 -63.21675 10215 ft 189 kts 297°
2026-04-23 13:46 -31.66118 -63.23112 10217 ft 190 kts 295°
2026-04-23 13:47 -31.65615 -63.24538 10219 ft 190 kts 295°
2026-04-23 13:47 -31.65111 -63.25964 10220 ft 190 kts 295°
2026-04-23 13:47 -31.64606 -63.27393 10220 ft 190 kts 295°
2026-04-23 13:47 -31.64097 -63.28826 10220 ft 190 kts 295°
2026-04-23 13:48 -31.63589 -63.30260 10220 ft 190 kts 295°
2026-04-23 13:48 -31.63080 -63.31692 10221 ft 190 kts 295°
2026-04-23 13:48 -31.62571 -63.33124 10223 ft 190 kts 296°
2026-04-23 13:48 -31.62064 -63.34551 10222 ft 190 kts 296°
2026-04-23 13:49 -31.61556 -63.35979 10222 ft 190 kts 296°
2026-04-23 13:49 -31.61043 -63.37421 10222 ft 190 kts 295°
2026-04-23 13:49 -31.60535 -63.38849 10222 ft 190 kts 296°
2026-04-23 13:49 -31.60025 -63.40281 10223 ft 190 kts 295°
2026-04-23 13:50 -31.59521 -63.41695 10223 ft 190 kts 295°
2026-04-23 13:50 -31.59012 -63.43126 10222 ft 190 kts 296°
2026-04-23 13:50 -31.58495 -63.44572 10220 ft 190 kts 295°
2026-04-23 13:50 -31.57986 -63.46001 10218 ft 190 kts 295°
2026-04-23 13:51 -31.57476 -63.47429 10220 ft 190 kts 295°
2026-04-23 13:51 -31.56967 -63.48856 10222 ft 190 kts 295°
2026-04-23 13:51 -31.56458 -63.50284 10222 ft 190 kts 296°
2026-04-23 13:51 -31.55946 -63.51716 10221 ft 190 kts 295°
2026-04-23 13:52 -31.55436 -63.53141 10221 ft 189 kts 296°
2026-04-23 13:52 -31.54925 -63.54569 10221 ft 189 kts 295°
2026-04-23 13:52 -31.54415 -63.55996 10219 ft 189 kts 296°
2026-04-23 13:52 -31.53911 -63.57403 10220 ft 189 kts 296°
2026-04-23 13:53 -31.53401 -63.58829 10221 ft 189 kts 296°
2026-04-23 13:53 -31.52888 -63.60260 10221 ft 189 kts 296°
2026-04-23 13:53 -31.52377 -63.61684 10223 ft 190 kts 296°
2026-04-23 13:53 -31.51866 -63.63111 10219 ft 190 kts 295°
2026-04-23 13:54 -31.51357 -63.64532 10222 ft 190 kts 296°
2026-04-23 13:54 -31.50838 -63.65976 10221 ft 190 kts 296°
2026-04-23 13:54 -31.50326 -63.67405 10222 ft 190 kts 296°
2026-04-23 13:54 -31.49818 -63.68823 10222 ft 189 kts 296°
2026-04-23 13:55 -31.49307 -63.70246 10221 ft 189 kts 296°
2026-04-23 13:55 -31.48798 -63.71667 10221 ft 189 kts 297°
2026-04-23 13:55 -31.48289 -63.73082 10222 ft 189 kts 297°
2026-04-23 13:55 -31.47781 -63.74495 10223 ft 189 kts 296°
2026-04-23 13:56 -31.47265 -63.75929 10224 ft 189 kts 297°
2026-04-23 13:56 -31.46760 -63.77333 10223 ft 189 kts 296°
2026-04-23 13:56 -31.46246 -63.78758 10223 ft 189 kts 296°
2026-04-23 13:56 -31.45733 -63.80182 10223 ft 189 kts 296°
2026-04-23 13:57 -31.45220 -63.81606 10222 ft 187 kts 296°
2026-04-23 13:57 -31.44714 -63.83010 10057 ft 188 kts 296°
2026-04-23 13:57 -31.44202 -63.84429 9836 ft 192 kts 296°
2026-04-23 13:57 -31.43680 -63.85875 9587 ft 193 kts 296°
2026-04-23 13:58 -31.43161 -63.87312 9337 ft 191 kts 297°
2026-04-23 13:58 -31.42647 -63.88737 9085 ft 190 kts 297°
2026-04-23 13:58 -31.42135 -63.90152 8833 ft 189 kts 297°
2026-04-23 13:58 -31.41643 -63.91577 8575 ft 190 kts 290°
2026-04-23 13:59 -31.41340 -63.93086 8321 ft 191 kts 285°
2026-04-23 13:59 -31.41098 -63.94609 8070 ft 191 kts 283°
2026-04-23 13:59 -31.40872 -63.96138 7819 ft 191 kts 283°
2026-04-23 13:59 -31.40651 -63.97670 7571 ft 191 kts 283°
2026-04-23 14:00 -31.40504 -63.98687 7407 ft 191 kts 283°
2026-04-23 14:00 -31.40218 -64.00684 6899 ft 185 kts 283°
2026-04-23 14:00 -31.40009 -64.02142 6507 ft 179 kts 283°
2026-04-23 14:00 -31.39808 -64.03542 6114 ft 175 kts 283°
2026-04-23 14:01 -31.39607 -64.04935 5709 ft 172 kts 283°
2026-04-23 14:01 -31.39412 -64.06290 5316 ft 169 kts 283°
2026-04-23 14:01 -31.39217 -64.07643 4942 ft 166 kts 283°
2026-04-23 14:01 -31.39028 -64.08953 4574 ft 163 kts 283°
2026-04-23 14:02 -31.38842 -64.10245 4205 ft 161 kts 283°
2026-04-23 14:02 -31.38657 -64.11522 3835 ft 160 kts 282°
2026-04-23 14:02 -31.38473 -64.12798 3463 ft 158 kts 282°
2026-04-23 14:02 -31.38292 -64.14054 3097 ft 157 kts 282°
2026-04-23 14:03 -31.38110 -64.15310 2724 ft 156 kts 282°
2026-04-23 14:03 -31.37933 -64.16534 2508 ft 142 kts 283°
2026-04-23 14:03 -31.37782 -64.17599 2561 ft 125 kts 283°
2026-04-23 14:03 -31.37644 -64.18559 2574 ft 113 kts 283°
2026-04-23 14:04 -31.37514 -64.19442 2582 ft 109 kts 284°
2026-04-23 14:04 -31.37226 -64.20258 2457 ft 114 kts 317°
2026-04-23 14:04 -31.36521 -64.20682 2306 ft 114 kts 350°
2026-04-23 14:04 -31.35730 -64.20757 2184 ft 115 kts
2026-04-23 14:05 -31.34925 -64.20817 2094 ft 113 kts 357°
2026-04-23 14:05 -31.34142 -64.20800 1947 ft 115 kts
2026-04-23 14:05 -31.33335 -64.20802 1823 ft 112 kts
2026-04-23 14:05 -31.32569 -64.20812 1614 ft 111 kts 360°
2026-04-23 14:06 -31.31845 -64.20818 1546 ft 86 kts
2026-04-23 14:06 -31.31366 -64.20828 1556 ft 51 kts 11°
2026-04-23 14:06 -31.31289 -64.20843 1558 ft 13 kts 176°
2026-04-23 14:06 -31.31440 -64.20855 1556 ft 23 kts 218°
2026-04-23 14:07 -31.31465 -64.20933 1558 ft 5 kts 267°
2026-04-23 14:07 -31.31505 -64.21046 1561 ft 19 kts 237°
2026-04-23 14:07 -31.31504 -64.21164 1563 ft 10 kts 264°
2026-04-23 14:08 -31.31504 -64.21169 1563 ft 0 kts 266°